Theta_e
320 320 317 315 317 323 327 328 328 328 327 327 326 325 324 324 323 322 322 322 322 322 323 323 323 323 323 323 323 323 322 322 323 324 326 324 319 318 318 314 313 314 314 316 317 316 318 317 315 314 317 319 318 316 316 321 324 320 327 328 326 329 326 325 325 320 321 324 320 316 319 321 319 315 314 317 326 332 331 340 339 333 333 330 328 329 333 335
320 320 319 318 315 317 323 327 328 328 328 327 326 325 324 323 323 321 321 322 322 322 322 322 322 322 323 324 323 323 323 323 325 325 325 325 321 317 316 315 314 314 314 316 317 317 324 324 316 314 317 320 319 317 318 320 319 321 327 325 326 332 327 324 326 321 318 320 320 317 317 318 319 317 316 317 325 332 331 337 340 340 339 333 331 332 334 334
319 320 320 320 317 315 318 323 327 328 328 327 326 325 323 323 323 321 320 322 322 322 323 322 322 323 323 324 324 324 324 324 326 326 325 326 324 318 313 315 315 314 314 317 319 318 323 322 314 316 320 318 319 320 321 320 318 322 323 321 327 329 324 323 324 320 318 317 319 318 316 317 318 316 316 319 325 328 327 334 340 344 347 340 333 332 333 333
317 318 320 320 319 318 316 318 323 327 328 327 327 326 324 322 322 322 321 322 323 323 323 323 323 323 324 324 324 324 324 326 327 326 325 325 326 321 314 314 314 313 314 316 319 318 318 317 313 318 323 322 322 321 321 321 319 319 319 321 327 323 320 323 321 318 316 315 317 320 318 317 317 314 316 321 324 325 323 328 336 342 345 338 332 332 333 333
316 317 318 319 319 320 319 317 318 323 327 327 327 326 324 322 322 322 321 322 322 322 322 323 323 323 323 323 324 324 324 329 329 325 325 326 326 323 317 315 314 312 314 315 315 315 316 316 314 318 326 328 324 322 322 320 318 318 318 323 324 317 316 320 320 317 315 314 317 320 319 318 316 313 317 323 323 323 322 322 329 338 337 333 333 332 332 332
316 316 316 318 319 319 319 318 316 318 324 327 327 326 325 322 322 322 322 322 322 322 321 321 322 322 323 323 324 324 325 329 326 324 326 326 326 326 321 318 315 313 313 315 314 314 316 317 317 320 325 326 323 324 324 317 316 318 318 324 327 318 314 317 317 315 316 316 318 320 318 317 317 315 317 321 320 319 320 323 332 335 332 331 332 332 333 333
316 315 316 316 317 319 319 320 318 316 320 326 327 326 325 323 322 323 322 322 322 322 322 322 322 322 323 324 324 324 326 326 321 322 326 325 326 327 324 318 314 314 314 314 315 317 319 319 322 323 323 323 322 322 319 314 314 317 317 322 326 321 316 316 315 314 317 319 318 317 316 316 318 317 316 317 319 318 315 321 330 331 329 331 332 332 332 332
315 315 316 315 315 317 319 320 319 317 317 322 327 326 325 323 322 323 323 323 323 323 323 323 323 323 324 324 325 326 327 326 320 321 326 326 326 327 323 315 312 314 314 315 316 318 319 319 322 324 325 324 324 322 314 313 315 316 316 317 317 318 315 314 314 314 317 318 316 314 316 317 317 315 315 316 317 316 314 321 329 330 330 331 332 333 332 331
313 315 315 315 314 315 317 319 320 319 315 317 324 326 325 323 323 323 323 324 324 325 324 324 324 323 324 324 325 327 326 325 321 320 325 326 326 327 322 314 313 314 314 316 316 316 318 319 321 324 328 324 325 327 318 314 314 312 312 313 315 317 315 312 313 314 315 315 313 315 318 317 313 312 315 316 315 317 320 330 335 331 332 333 333 333 332 331
309 312 314 315 314 314 315 318 319 319 316 314 320 326 325 323 323 323 324 325 325 325 324 324 324 324 324 324 325 328 325 323 322 320 324 326 325 325 322 315 314 315 315 316 315 316 319 319 318 320 325 324 323 327 324 319 314 310 311 313 315 318 317 313 313 313 313 313 314 317 318 316 312 312 316 315 316 318 326 334 334 332 334 333 332 333 331 331
309 310 312 313 314 314 314 317 318 319 318 314 316 323 326 324 323 323 324 325 325 325 324 323 324 324 324 324 325 327 323 322 322 319 322 325 325 324 323 320 317 316 317 316 315 315 317 317 316 317 322 324 322 324 326 321 315 312 313 317 317 319 318 314 314 314 313 313 314 316 315 315 311 313 316 312 315 318 327 336 332 333 334 331 333 332 330 331
310 310 311 311 313 314 313 315 317 318 319 316 314 319 326 326 324 324 323 324 325 324 324 324 324 324 324 324 326 325 322 322 321 320 321 323 324 323 322 322 319 318 318 317 316 315 315 315 315 321 323 322 322 323 324 321 318 314 314 319 321 321 320 316 314 314 313 312 314 313 313 315 312 314 314 311 317 320 325 335 334 332 333 332 332 332 331 331
309 309 310 310 311 313 314 314 315 316 318 318 314 315 323 327 325 324 324 323 324 324 324 324 324 324 324 326 325 323 322 321 321 321 322 321 321 321 321 322 321 320 319 318 317 315 315 315 316 321 320 320 323 323 324 321 316 316 316 318 320 320 321 317 313 313 313 312 314 313 315 319 316 314 313 313 321 323 323 331 332 332 332 332 332 331 332 330
308 309 309 309 309 311 313 314 314 315 316 317 315 313 319 326 326 324 324 324 324 324 324 324 324 323 325 326 323 321 321 320 321 322 322 321 319 318 318 319 320 320 321 320 318 315 314 314 314 316 316 320 322 321 327 326 322 323 320 318 318 318 321 318 314 313 312 312 313 312 315 319 317 314 313 315 322 326 324 327 329 332 332 331 332 331 331 330
308 309 310 310 309 309 311 313 314 314 315 316 316 313 315 323 327 325 325 324 324 325 324 323 323 323 325 325 321 319 320 321 322 321 321 321 319 317 315 316 316 316 318 320 319 315 313 313 314 317 316 317 318 321 331 334 331 329 325 324 321 317 321 321 315 312 313 313 312 312 314 316 315 314 314 314 319 325 324 324 325 329 331 330 331 330 330 330
308 309 310 310 310 309 310 311 313 314 315 315 316 313 312 320 327 325 325 324 323 324 323 323 322 322 326 325 322 319 319 322 322 320 320 320 320 318 314 314 313 313 315 317 318 314 313 315 316 318 318 315 318 324 329 330 330 327 324 326 322 315 318 319 315 313 314 313 311 312 315 317 315 314 313 311 316 322 322 323 323 324 326 328 329 329 330 329
309 308 309 311 311 310 310 310 312 314 315 316 316 314 311 318 326 326 324 324 323 323 322 322 321 323 325 322 321 320 318 320 321 320 320 319 320 318 315 313 311 312 314 314 315 314 314 315 314 316 320 321 321 322 326 326 327 326 322 320 319 315 314 315 315 314 313 312 312 312 313 316 316 315 314 311 312 317 319 321 322 322 322 323 326 327 328 328
309 309 309 310 311 311 311 310 310 313 315 316 317 316 311 316 326 326 324 324 323 322 322 322 322 325 326 321 321 321 319 319 320 320 320 319 319 318 316 313 311 313 314 314 314 314 315 316 315 317 320 321 319 319 325 326 326 326 322 318 318 316 313 314 315 313 312 312 312 313 312 313 314 313 314 312 310 313 316 315 316 319 320 321 321 323 325 326
310 310 309 309 309 310 311 311 310 311 314 316 317 316 312 316 325 325 323 324 323 324 325 324 324 326 327 322 321 321 319 319 320 320 319 319 317 316 315 312 312 314 315 316 316 315 315 316 317 319 318 318 317 318 323 324 324 324 321 317 316 317 315 314 314 314 313 313 314 314 312 313 313 312 313 313 311 311 312 311 311 314 317 317 318 319 321 323
309 309 309 308 307 307 310 311 311 310 313 316 317 316 314 320 328 327 323 323 324 325 325 325 324 324 324 322 320 320 319 318 319 318 318 318 315 314 312 310 313 315 316 318 317 315 315 317 319 319 318 317 316 318 319 319 319 318 318 317 315 315 315 313 315 315 313 312 314 313 312 314 314 312 312 313 312 311 310 310 311 311 312 313 315 316 317 320
308 309 308 307 306 306 308 311 311 310 313 316 317 316 317 323 329 327 324 324 323 322 322 323 323 323 323 321 320 320 319 319 319 317 317 317 315 315 314 311 314 316 316 317 316 315 315 318 319 318 318 317 315 318 317 316 316 317 319 320 317 315 313 311 311 314 313 312 314 314 312 314 315 313 312 313 313 314 312 311 312 310 310 310 312 314 314 316
307 308 308 307 306 305 306 309 311 310 313 316 317 316 317 321 324 322 324 326 324 320 320 322 321 321 321 320 320 321 321 321 320 317 316 316 316 318 315 311 313 315 315 316 316 316 317 319 319 317 318 317 315 316 316 316 317 318 320 320 318 315 313 311 311 313 312 311 314 316 311 312 315 313 311 312 313 314 312 311 311 311 310 309 310 312 312 313
305 307 308 307 305 305 306 308 309 311 314 316 317 316 316 319 320 319 323 327 324 319 320 322 321 321 321 321 321 321 322 323 322 319 316 316 317 317 314 311 312 314 314 316 316 317 318 318 317 316 317 316 315 315 315 317 317 318 319 318 317 315 314 313 313 313 312 311 314 316 314 315 317 314 311 311 312 313 313 312 311 312 312 310 309 310 311 312
304 306 308 307 305 305 307 308 310 312 314 315 317 316 316 319 320 320 323 325 323 320 320 321 320 321 321 322 322 322 323 322 322 319 315 316 317 315 313 311 312 313 314 315 316 316 317 316 315 315 316 317 316 315 315 317 318 318 317 316 315 315 314 312 312 313 312 312 313 314 315 317 318 315 313 313 311 311 312 312 312 313 313 312 310 310 310 311
304 305 308 307 305 306 307 309 311 313 314 315 317 316 316 319 319 319 323 324 323 320 320 320 319 321 321 321 322 322 323 322 321 319 315 315 316 313 313 312 311 313 314 314 315 316 315 313 314 315 316 317 316 316 316 317 318 318 316 315 314 314 312 312 313 313 313 315 316 314 314 318 321 318 314 313 313 311 311 311 312 312 311 311 311 310 311 311
304 305 307 307 305 306 308 310 311 313 314 315 316 316 317 319 318 319 324 326 324 321 322 322 321 322 321 322 322 321 324 323 320 317 315 315 314 313 313 312 311 313 312 312 314 316 314 312 314 315 315 317 317 316 315 316 317 317 317 314 313 314 314 315 315 313 315 320 317 312 314 319 322 320 317 315 314 314 312 311 312 312 311 311 310 310 310 310
305 306 307 306 305 306 309 310 311 313 315 315 315 316 317 318 318 319 323 327 326 321 322 323 321 322 322 322 321 323 327 324 319 317 314 314 313 313 313 312 312 311 310 311 313 314 312 312 315 316 314 315 316 316 315 314 316 317 319 317 314 314 314 316 316 315 319 321 317 313 314 316 317 316 317 314 313 315 313 311 312 312 311 311 310 310 310 310
305 306 307 307 307 307 309 310 312 314 314 314 315 316 317 317 317 319 324 328 326 320 321 321 319 320 321 322 322 323 324 321 321 319 314 313 313 312 313 313 312 311 309 312 315 314 310 311 315 315 314 314 315 316 315 314 314 317 319 317 316 316 316 317 317 317 318 317 318 318 314 314 318 322 320 314 313 316 316 313 313 311 311 311 310 310 310 310
305 305 306 307 308 308 309 310 313 314 313 313 315 316 316 316 317 320 324 327 323 319 321 321 318 319 321 323 322 320 320 321 322 318 313 314 314 312 314 313 311 312 310 311 315 314 310 311 313 313 314 314 313 315 315 313 313 317 320 318 318 321 320 319 320 318 314 315 318 319 316 313 320 328 323 313 312 317 318 316 314 312 311 311 310 311 311 310
304 305 306 307 308 310 310 311 312 313 313 314 316 315 315 316 318 323 326 326 322 319 320 320 319 321 323 324 323 320 321 320 318 316 315 316 315 313 313 312 311 313 312 311 315 315 312 311 311 312 314 313 312 313 313 314 315 317 320 317 317 321 320 320 324 321 315 316 318 321 320 313 317 326 320 314 317 320 318 316 314 313 313 312 310 310 310 311
304 304 305 307 310 310 311 312 311 312 314 315 315 314 316 318 319 324 326 322 320 319 319 319 321 323 323 324 323 322 321 318 315 316 317 317 316 315 314 313 314 316 314 312 314 315 313 312 312 314 315 313 311 312 312 314 316 318 319 317 317 319 317 317 322 320 317 318 320 324 322 313 314 321 318 317 321 319 315 316 317 317 316 314 313 312 310 310
304 304 305 308 311 311 312 312 311 312 315 315 315 315 317 319 320 323 323 320 321 320 318 320 322 323 323 323 323 322 320 318 316 316 317 317 316 314 314 315 315 316 316 314 314 315 314 315 314 314 315 313 312 313 313 313 315 317 317 317 318 320 319 318 319 319 319 318 317 318 317 313 313 316 317 317 317 316 313 314 316 316 315 316 317 317 314 312
304 305 307 310 312 312 312 311 310 313 315 314 315 316 317 319 321 323 321 318 320 319 317 321 322 322 323 323 323 320 319 319 316 316 317 316 316 314 314 316 315 318 319 315 315 316 316 317 316 313 313 313 313 313 313 313 314 314 315 317 318 319 320 319 318 319 321 320 315 312 313 316 317 316 318 317 313 314 314 311 312 313 314 316 316 317 319 321
306 308 311 312 313 312 311 311 312 314 314 313 315 317 318 319 320 321 319 316 317 317 317 320 322 322 323 323 321 320 320 320 317 317 317 316 316 315 314 315 314 317 319 316 316 316 317 317 315 313 314 313 313 312 314 316 314 312 314 317 318 320 322 321 319 320 322 321 315 312 314 320 321 319 318 315 313 315 313 312 314 314 313 313 314 316 320 328
309 312 314 313 313 312 311 311 313 314 314 314 316 318 318 318 319 320 318 315 315 317 318 320 322 324 324 322 320 319 320 320 318 318 317 316 316 315 314 314 313 314 316 316 315 316 316 317 314 314 314 313 313 315 315 315 315 314 316 316 316 320 321 320 320 321 322 320 315 314 317 322 321 316 313 312 314 316 314 313 315 315 313 312 315 317 317 323
313 315 315 314 313 312 312 313 314 314 314 314 317 319 318 317 319 318 316 315 315 316 318 320 322 325 324 321 320 319 318 319 319 318 317 317 316 315 315 314 313 312 314 316 316 316 316 316 315 313 313 313 315 318 315 314 316 315 315 315 315 317 317 317 316 314 315 318 317 316 318 320 318 314 314 314 314 316 314 314 315 315 315 316 319 321 320 324
315 315 314 313 313 312 312 313 314 314 315 315 317 319 319 317 317 316 315 315 316 316 319 322 323 323 322 320 320 320 319 320 319 318 318 317 317 316 315 315 314 312 313 315 315 316 317 316 314 315 315 313 313 316 315 316 317 315 315 316 315 316 318 321 318 313 312 316 320 319 316 318 317 317 321 318 313 315 315 314 315 314 316 319 321 322 322 322
313 314 314 314 313 313 313 314 314 315 316 316 317 318 319 318 316 315 315 315 316 317 320 322 322 321 321 320 320 319 320 321 320 319 319 317 318 317 314 315 314 311 313 315 314 315 317 317 314 314 316 313 310 314 315 314 314 314 316 317 316 317 317 320 319 316 314 314 318 320 317 317 317 318 321 317 313 316 314 312 314 315 317 320 322 324 322 318
313 314 315 314 313 313 314 314 315 315 316 317 317 318 318 317 316 316 316 315 315 317 320 322 321 320 319 320 320 319 321 322 320 320 319 318 319 317 314 315 315 312 312 314 316 316 316 319 317 313 313 314 312 314 314 314 312 312 314 314 315 316 317 318 318 317 317 316 318 319 315 316 318 317 318 316 315 317 315 315 317 317 318 318 319 322 322 319
314 315 315 314 313 314 314 315 315 315 317 318 317 318 319 317 315 315 316 315 315 317 319 320 320 319 318 318 319 319 321 321 320 321 320 318 318 315 314 314 314 313 312 312 316 315 314 319 319 314 312 314 316 316 315 315 313 313 314 314 312 312 317 320 318 318 321 321 321 318 314 318 321 316 314 315 314 315 317 319 322 323 321 318 317 318 318 318
315 314 314 314 313 314 315 315 316 317 317 318 318 318 318 316 314 314 315 315 315 316 317 318 319 318 317 317 317 318 320 320 320 321 320 318 317 315 314 314 313 312 311 311 314 315 314 317 319 317 314 315 316 316 316 316 314 314 315 314 313 313 316 318 316 317 318 319 322 319 314 319 320 313 311 314 314 313 315 318 319 322 321 321 321 317 314 316
315 315 314 314 313 315 316 317 317 317 317 318 317 317 316 315 314 314 315 315 316 316 315 316 318 318 317 317 317 317 319 320 320 321 319 318 317 316 313 313 313 311 311 313 314 316 319 320 320 318 316 317 316 312 311 315 316 315 315 315 314 313 315 316 317 319 317 314 319 319 315 316 315 312 312 314 316 315 314 315 316 318 319 324 327 324 321 320
315 315 314 313 314 315 317 318 318 317 316 316 316 315 315 314 314 314 315 316 316 316 316 316 317 316 316 317 316 316 317 318 319 319 317 315 315 316 315 313 313 311 312 315 314 315 319 321 320 318 316 319 319 314 312 313 314 315 316 316 315 315 321 324 321 322 320 315 316 316 313 314 313 314 314 314 317 318 315 314 315 317 322 329 333 333 334 331
314 315 314 313 314 314 317 319 318 317 315 315 315 314 314 313 313 314 315 316 316 315 316 316 316 316 315 316 316 315 316 317 317 316 316 314 312 314 315 312 313 312 312 313 314 316 320 319 318 319 318 320 322 319 316 314 314 317 318 317 317 318 321 321 316 316 317 318 318 316 314 317 319 317 313 311 314 315 314 314 313 317 323 330 332 331 333 334
313 314 313 312 313 314 316 318 317 316 314 313 314 313 313 313 313 314 315 315 315 315 316 316 317 316 315 316 316 316 316 318 316 315 315 314 312 312 313 313 313 312 313 315 315 317 324 322 317 318 319 318 319 318 317 316 314 316 317 315 316 318 316 314 314 314 314 318 318 315 315 318 319 316 311 311 313 313 314 315 315 318 320 324 327 328 332 336
315 314 312 313 313 313 316 316 315 314 313 314 313 312 312 313 313 313 315 315 314 314 316 316 316 316 314 315 316 315 316 316 316 315 314 314 314 311 311 313 313 313 317 321 317 318 324 321 316 317 318 316 318 320 319 318 316 315 317 317 316 317 315 315 317 315 315 318 316 314 317 315 313 313 313 314 315 315 315 315 316 317 315 318 322 323 329 335
316 313 311 313 314 314 316 315 314 313 313 314 314 312 312 313 313 313 314 315 315 314 314 315 316 316 314 315 315 315 314 314 315 315 312 314 316 313 311 313 313 316 322 320 316 319 323 319 316 318 317 315 322 325 320 317 317 315 317 318 316 316 315 315 316 315 316 318 314 315 318 316 314 316 316 316 316 317 316 314 315 315 316 319 321 322 326 330
314 314 313 314 315 315 316 314 313 314 314 315 314 312 312 313 312 313 313 313 314 313 313 313 315 315 314 314 316 315 314 314 314 314 313 314 315 312 311 312 312 317 320 315 313 316 318 316 316 317 315 316 322 324 319 317 317 315 315 316 315 316 316 315 315 315 316 315 315 318 319 316 316 318 317 317 316 315 314 313 314 315 318 321 321 321 325 327
312 314 313 313 315 316 315 313 313 314 315 316 315 312 312 313 313 313 313 313 312 312 313 313 314 314 314 314 315 315 315 315 314 314 313 314 314 312 312 312 312 315 315 313 315 316 315 317 317 316 314 314 317 319 318 317 317 316 316 315 315 315 315 314 313 314 314 314 315 320 319 315 317 317 316 316 314 312 313 313 315 316 319 322 323 325 330 331
312 315 312 313 315 315 315 313 313 314 315 316 315 313 312 313 312 313 313 313 312 312 313 313 313 314 314 315 315 315 314 314 315 314 312 313 313 312 312 313 312 312 312 312 313 313 314 317 316 315 314 313 314 315 315 315 317 317 316 315 314 314 314 314 313 313 314 313 313 316 316 314 316 316 315 313 312 312 313 315 317 317 319 322 325 330 338 342
307 310 310 313 315 314 315 314 313 314 315 315 315 314 312 312 312 313 313 312 312 313 312 313 313 313 313 314 314 315 314 314 314 313 312 313 313 311 312 314 313 311 312 313 312 313 315 315 311 314 316 312 311 314 314 314 314 315 315 315 315 314 314 313 313 313 313 313 313 314 314 313 314 317 315 312 311 312 313 315 317 317 319 325 327 331 339 344
302 308 312 314 314 314 315 315 313 314 315 314 314 314 313 312 312 312 312 312 313 313 313 312 313 312 313 314 314 314 313 313 313 313 311 311 312 311 313 314 312 311 312 314 315 316 317 315 313 316 318 312 310 313 315 315 315 315 315 314 313 313 313 313 314 314 312 312 313 313 313 314 315 316 315 312 313 315 314 315 316 316 319 324 326 328 331 332
Wind_Speed
21 18 21 27 27 27 31 37 38 38 38 38 38 38 37 36 38 39 38 36 32 31 30 28 27 24 23 21 20 20 19 18 17 15 11 10 13 14 16 14 12 12 14 15 18 16 9 4 7 9 2 3 6 3 3 1 1 1 2 2 3 4 4 5 7 6 4 2 4 5 6 10 6 4 4 2 4 3 2 3 3 3 4 2 3 8 29 31
21 20 20 23 25 26 27 32 38 39 38 39 39 39 39 38 38 39 39 37 35 33 32 30 28 25 23 22 20 19 18 16 13 11 15 16 12 14 17 18 14 12 14 14 16 16 10 3 5 8 5 1 3 4 4 2 1 2 2 1 4 5 4 5 7 6 3 2 3 4 4 7 7 6 5 4 4 2 4 2 5 3 4 3 4 19 30 29
18 19 20 21 21 25 27 27 32 39 40 39 40 40 40 40 39 39 39 38 36 34 33 32 30 27 24 22 20 20 17 10 5 9 19 19 13 15 16 16 17 14 12 13 13 15 15 9 4 3 3 1 1 2 3 2 1 2 3 2 5 5 4 4 6 6 5 2 3 4 2 3 5 5 4 5 5 3 7 5 1 5 4 2 8 21 27 27
17 17 19 21 21 22 25 26 28 33 41 41 40 41 41 41 41 40 40 39 36 35 33 31 30 27 24 22 19 19 12 2 3 13 24 22 16 18 18 16 18 15 11 14 15 14 18 15 5 2 3 2 1 2 2 2 1 1 3 4 5 3 3 5 6 6 5 3 4 4 3 2 4 2 3 6 6 4 8 9 9 10 9 8 9 17 24 25
17 17 17 19 22 21 22 26 28 29 36 43 42 42 42 42 42 42 41 41 38 36 34 32 30 27 25 22 19 17 10 1 6 16 26 26 21 20 19 17 16 17 16 18 18 18 19 14 6 2 3 2 1 1 2 3 1 1 2 4 3 2 2 5 5 4 3 3 4 6 5 5 3 1 4 10 9 8 8 10 11 9 12 14 14 17 20 21
18 17 17 18 20 22 22 24 27 27 31 41 44 42 43 43 42 43 42 41 40 37 36 34 31 30 27 23 21 19 12 3 3 12 26 29 25 23 21 17 17 19 19 20 20 21 17 10 6 4 2 2 2 3 2 4 0 2 3 2 4 3 3 4 2 3 4 6 5 6 4 4 6 4 4 10 11 6 3 8 9 8 13 18 19 18 16 17
19 17 17 18 19 21 23 23 24 27 29 35 44 44 43 43 42 42 41 41 40 38 37 35 33 31 28 25 21 16 11 7 0 8 25 30 28 25 22 20 21 22 22 21 16 14 11 9 7 4 4 4 1 2 0 4 2 3 3 3 5 4 5 6 2 1 4 6 6 4 2 6 10 6 2 7 12 5 5 4 10 9 13 16 16 16 16 19
19 18 17 17 19 19 21 24 23 25 29 30 40 46 43 43 43 42 42 41 39 39 37 36 34 31 31 26 16 8 8 9 3 6 22 29 28 26 24 23 23 23 23 22 17 12 10 10 9 4 4 3 2 2 2 3 1 1 3 3 5 3 4 6 5 3 3 5 3 5 3 6 9 5 3 9 12 4 5 3 10 10 12 12 13 14 15 17
19 20 19 18 18 19 20 23 23 23 27 29 34 45 45 43 44 42 42 41 39 40 38 37 36 33 34 25 11 6 9 12 7 7 20 29 27 27 26 24 25 24 21 20 18 16 11 8 8 5 4 3 2 1 2 2 2 1 3 4 4 4 5 6 5 4 2 3 3 5 6 7 3 1 2 10 10 2 3 6 9 10 10 10 12 14 14 14
19 20 20 20 18 19 19 22 24 23 25 31 31 41 47 44 44 43 43 42 40 39 38 38 37 35 33 20 9 7 8 14 13 10 20 28 27 27 27 26 26 24 21 17 16 16 7 6 8 6 5 3 2 2 2 2 1 4 5 5 3 3 4 3 4 6 3 3 6 7 8 6 3 1 5 7 5 7 7 7 7 10 11 12 11 11 15 15
18 19 20 21 20 19 20 21 23 23 23 30 32 36 46 46 44 45 43 43 42 40 39 38 38 37 29 16 9 7 8 16 17 14 20 27 28 28 28 28 26 22 19 14 16 18 9 10 15 7 3 3 3 2 3 1 1 5 4 4 4 3 4 3 4 6 4 2 6 7 5 4 1 2 8 5 3 8 10 9 8 10 10 11 11 10 12 14
19 19 20 21 22 21 21 21 22 24 23 27 33 33 43 48 46 46 45 44 43 40 40 40 39 37 24 11 9 7 11 18 18 18 22 25 28 28 27 26 25 22 19 13 14 16 11 17 19 6 2 7 6 1 1 1 1 4 3 3 5 5 4 4 3 3 1 2 4 5 2 4 2 7 10 4 5 5 8 10 9 10 9 9 10 9 9 13
21 20 20 21 22 22 23 22 22 23 23 25 30 32 38 49 49 46 47 45 44 43 41 41 40 35 20 6 7 11 16 18 19 21 23 25 24 23 21 21 22 22 19 16 15 15 16 22 16 6 4 7 5 2 3 1 1 1 1 2 3 5 4 5 3 2 2 2 2 4 4 5 7 13 8 5 7 7 7 9 9 9 8 7 8 7 8 12
23 22 21 22 22 23 23 23 23 22 22 23 27 32 35 45 51 48 47 46 44 44 42 43 40 30 15 4 6 15 20 18 20 24 26 25 22 18 18 19 19 19 18 18 18 17 21 21 12 8 3 2 3 3 3 2 2 1 1 2 1 2 4 5 2 6 5 2 2 4 4 5 9 13 6 6 7 9 8 9 8 8 8 7 7 8 9 10
24 23 22 22 23 24 24 24 24 22 22 23 25 32 34 40 51 49 47 47 45 46 45 43 37 21 7 3 6 17 22 19 21 27 27 28 25 18 18 19 15 13 15 18 20 21 22 18 9 6 1 1 3 4 2 2 2 1 2 3 3 3 4 6 1 7 6 1 3 5 4 6 9 11 5 5 7 9 10 9 9 9 9 8 8 9 9 9
25 25 23 23 23 24 24 24 25 23 23 24 25 30 34 36 49 51 48 47 44 47 43 31 28 17 3 2 9 18 17 15 22 27 27 28 25 20 21 20 12 11 12 15 21 22 19 12 4 2 3 1 3 4 3 1 2 1 3 5 4 3 2 4 2 5 5 1 2 5 4 4 7 8 5 3 8 9 9 8 9 10 9 9 8 8 9 8
25 27 25 23 23 24 25 25 26 25 24 25 25 28 32 34 47 52 47 48 44 47 39 24 24 14 1 6 12 15 12 13 23 27 26 24 20 22 24 16 8 12 14 14 18 17 11 5 2 2 2 2 3 5 3 5 6 3 2 3 3 2 3 3 3 3 4 2 4 6 5 6 8 7 5 3 7 9 9 11 10 9 9 8 8 8 9 9
24 26 27 24 23 23 25 26 26 27 26 26 25 25 30 36 49 53 45 47 40 37 28 17 22 11 4 11 11 13 18 21 26 28 26 21 19 24 21 12 8 12 12 9 9 7 3 1 2 3 2 3 5 6 7 6 5 6 5 4 4 4 5 5 4 3 6 4 4 6 6 11 13 11 8 4 5 8 11 10 7 7 8 8 8 8 9 10
23 23 26 27 25 24 25 27 27 28 27 26 25 23 26 31 41 45 43 41 24 16 13 11 17 7 3 13 11 16 25 29 27 25 25 21 20 21 16 14 13 10 9 5 4 5 3 3 2 5 6 8 9 11 9 2 5 8 6 4 5 6 6 5 4 4 6 5 6 8 7 10 14 13 12 6 6 8 9 5 4 6 8 7 7 8 9 11
23 24 27 28 28 26 26 28 28 29 28 25 24 17 14 18 18 18 22 25 17 13 9 15 21 6 7 12 14 20 23 26 22 17 24 26 23 18 11 12 11 5 6 7 6 4 4 6 7 8 9 12 12 10 6 2 6 8 4 2 3 5 6 5 4 5 4 5 7 9 9 10 13 15 13 5 6 6 7 7 8 8 7 8 9 10 11 12
26 27 29 31 31 29 27 29 29 29 28 27 26 14 7 13 8 7 13 14 20 14 3 17 22 6 8 17 24 28 17 14 14 14 25 28 23 17 7 9 11 6 5 7 7 3 4 8 8 6 6 9 9 7 6 4 5 5 4 2 2 4 4 7 6 5 1 3 6 6 8 11 14 15 10 4 6 7 9 10 11 11 10 8 9 11 12 11
29 28 30 34 35 34 30 30 31 30 29 30 27 12 10 17 9 9 17 10 17 8 2 14 15 4 10 21 31 34 16 8 12 13 23 26 18 13 9 10 11 8 7 7 6 4 5 7 7 6 6 9 8 7 7 5 4 3 2 3 2 2 2 7 8 5 1 3 5 4 6 8 12 15 10 4 6 7 8 11 12 12 10 8 9 12 12 10
33 31 32 34 36 37 33 31 32 31 31 30 24 15 19 23 11 12 15 5 10 4 1 12 11 8 13 14 25 31 16 10 13 12 19 22 12 10 11 12 11 10 10 10 9 8 6 6 8 9 9 11 9 8 9 6 3 4 3 3 3 1 0 4 4 3 1 2 2 2 4 5 8 12 11 7 8 7 7 9 9 8 8 10 11 11 10 11
36 34 33 35 37 37 35 32 31 32 35 31 26 28 30 23 13 22 11 4 6 3 4 13 10 11 14 15 24 24 13 10 11 13 20 20 10 8 10 11 12 10 10 12 11 9 4 3 9 10 10 12 10 9 10 8 5 5 5 4 2 1 3 4 3 5 4 2 0 1 3 5 6 10 11 6 6 7 8 8 8 8 9 10 10 9 9 11
39 37 35 38 37 36 36 29 28 34 34 27 28 36 33 20 17 24 9 2 5 2 5 10 5 9 15 19 23 18 12 10 10 15 21 21 15 10 8 7 8 10 11 11 10 6 3 4 10 11 9 12 12 11 12 10 6 5 6 6 4 4 5 6 6 5 3 4 2 1 4 6 4 8 11 6 4 7 7 8 11 11 9 9 8 9 10 11
42 40 38 40 39 38 31 17 25 35 26 22 30 35 30 24 22 17 6 1 5 4 10 11 6 14 18 15 15 13 13 8 7 17 20 20 17 10 9 7 3 8 12 9 5 3 3 7 11 11 9 11 10 10 11 11 7 5 6 8 7 7 5 7 7 3 2 5 3 1 5 7 5 5 8 5 5 9 8 8 11 11 8 8 9 10 11 11
42 42 42 42 42 38 24 13 26 29 15 20 34 34 27 26 25 13 3 4 6 6 13 10 7 18 19 14 17 14 10 8 8 13 16 17 13 5 9 11 4 7 9 6 4 2 5 10 11 11 10 10 9 8 10 11 8 4 7 11 10 8 7 8 5 4 4 3 4 1 3 5 5 6 6 2 4 9 9 9 10 10 9 10 11 12 12 13
44 46 44 43 43 40 33 27 24 21 22 29 33 33 29 26 21 10 4 7 4 6 8 5 6 17 15 13 18 9 7 16 13 8 13 15 9 2 7 11 9 10 9 8 6 2 7 12 14 14 11 8 9 8 10 12 7 4 7 10 8 7 8 7 4 5 3 2 5 4 3 3 6 6 4 1 3 8 10 11 11 11 12 12 13 14 14 14
47 48 47 44 41 40 47 41 25 25 39 38 31 33 35 28 13 4 4 6 3 3 5 6 8 14 13 12 14 7 9 13 8 6 11 11 5 2 5 9 9 12 10 8 6 2 5 11 15 16 11 9 10 8 11 14 7 3 7 7 4 4 3 2 4 4 1 2 8 7 4 5 5 5 3 1 3 7 9 9 10 11 12 12 13 14 14 13
51 51 51 45 36 41 48 40 35 38 39 35 34 35 34 21 7 4 8 5 3 2 4 7 9 13 18 16 10 10 13 7 5 10 8 4 3 2 2 6 6 8 8 6 7 4 1 3 8 10 8 8 10 8 9 13 9 6 7 5 3 2 2 1 1 3 2 6 8 7 4 4 5 5 5 4 5 7 8 8 8 9 11 11 11 11 12 10
53 55 55 43 38 46 36 25 39 43 32 35 39 33 23 9 3 6 9 3 3 3 6 9 13 17 21 17 9 12 14 7 10 16 8 4 4 1 4 7 4 5 6 7 7 2 3 3 4 4 3 5 7 5 4 8 8 7 5 5 3 1 1 1 1 1 5 7 5 4 2 3 6 5 4 6 7 7 8 8 9 10 10 9 8 8 9 8
55 60 57 45 46 51 35 32 46 42 36 42 35 21 11 5 5 6 4 5 4 6 8 11 16 19 21 18 12 14 14 9 13 17 13 11 8 7 9 9 7 7 7 8 5 1 2 2 3 1 1 6 9 7 4 4 6 5 5 6 5 3 3 3 3 3 5 5 2 2 2 3 7 6 7 10 9 8 9 9 10 10 8 8 7 7 7 6
58 61 54 47 52 53 50 53 52 43 45 45 26 10 7 7 8 3 4 4 4 5 8 12 18 23 25 19 12 14 13 11 16 17 14 13 9 7 6 5 9 8 5 8 7 5 4 3 3 4 2 4 10 10 6 5 6 7 7 6 6 5 4 6 5 2 4 4 2 1 1 3 4 4 10 13 13 13 11 10 10 9 9 10 8 6 6 6
59 58 48 52 60 60 61 56 49 49 49 35 16 9 10 12 8 5 5 4 2 7 9 13 20 23 22 16 13 16 10 9 18 18 15 13 9 8 6 7 13 7 4 8 6 7 9 4 4 7 3 4 10 10 8 7 6 7 5 4 5 5 4 5 4 3 4 3 2 0 1 4 3 3 9 11 11 12 9 6 7 8 9 8 7 7 7 7
52 50 48 54 59 61 62 54 51 56 43 21 11 8 11 13 6 4 5 4 4 8 10 13 18 19 15 11 14 15 5 6 17 15 13 15 12 13 12 11 15 10 6 9 5 5 9 6 2 2 1 7 10 6 6 9 6 5 3 3 5 6 4 2 2 4 3 1 3 2 3 4 3 6 9 6 7 9 8 6 6 9 9 6 7 9 8 7
43 47 47 47 49 54 57 54 58 56 34 14 11 9 10 10 6 4 6 7 8 13 15 13 14 15 10 7 11 12 4 7 17 12 9 13 12 13 14 10 13 14 10 9 6 5 7 3 1 3 3 5 8 6 6 8 6 3 4 6 5 3 5 2 1 1 3 3 4 2 4 5 3 8 10 4 5 8 9 8 7 9 7 5 7 8 8 7
40 37 32 33 43 52 56 58 59 47 25 14 11 9 10 8 6 6 8 10 13 17 18 13 9 11 10 7 8 12 10 10 14 12 9 11 10 13 14 9 11 17 13 8 4 3 6 3 1 2 4 2 1 3 3 3 4 5 6 7 2 2 2 2 1 1 1 5 4 1 5 5 3 6 7 5 7 10 9 8 7 7 6 6 8 8 8 8
29 24 18 27 46 52 56 62 55 33 14 10 11 11 10 8 8 10 9 11 14 16 15 11 7 6 9 10 10 14 17 13 12 11 11 10 8 14 19 12 13 18 13 7 3 2 5 5 2 1 4 1 1 3 4 2 1 4 6 6 4 3 4 2 3 4 4 5 4 2 3 4 5 6 4 5 9 12 11 7 5 7 7 7 9 9 9 7
22 18 10 29 52 53 60 61 41 19 9 8 11 11 9 8 10 12 13 13 13 14 12 9 7 6 8 12 15 17 18 16 16 12 10 10 6 12 20 12 10 17 13 6 4 4 4 4 1 1 2 2 1 4 9 7 1 2 2 3 3 3 4 4 3 3 4 4 3 2 3 4 7 6 5 8 10 10 10 7 6 9 9 8 8 8 8 6
15 12 8 35 55 55 62 51 23 10 8 8 11 11 9 8 10 14 17 17 12 8 8 9 10 9 10 12 14 16 14 15 18 13 9 12 6 7 18 13 8 14 12 4 3 4 2 2 3 1 1 3 3 5 10 10 6 3 4 5 5 2 2 2 2 2 3 4 3 2 5 7 5 6 9 11 11 10 9 7 7 8 7 7 7 8 7 6
13 7 8 39 56 57 50 26 9 8 7 11 14 11 10 10 11 16 20 20 13 4 3 10 13 12 13 14 12 12 11 13 16 11 6 12 9 5 14 18 13 14 12 5 4 5 3 2 5 4 2 4 3 3 3 7 8 7 6 7 7 5 4 4 6 2 2 3 4 3 7 9 4 6 9 11 11 12 9 8 8 7 7 8 7 7 7 6
14 5 12 43 59 55 32 7 7 11 8 13 12 7 9 11 14 19 20 20 15 5 2 7 11 12 11 14 14 13 12 12 15 13 6 11 15 7 10 18 16 15 15 8 4 4 2 4 5 3 4 5 2 2 1 1 2 4 4 5 6 6 5 6 7 3 1 3 2 2 7 8 5 9 10 10 12 12 7 8 8 7 6 7 7 6 5 5
9 5 20 50 62 48 19 6 13 13 7 9 10 9 10 10 15 19 18 17 14 10 8 6 9 10 6 7 12 13 12 10 14 15 6 7 12 7 9 17 18 15 13 7 4 4 3 5 5 2 1 2 4 3 2 3 2 2 4 3 5 6 5 5 5 4 3 4 2 1 7 6 3 6 7 8 10 11 5 5 6 6 6 6 6 5 5 4
5 4 14 39 56 40 15 10 14 11 8 9 11 13 10 8 16 19 18 16 11 10 12 9 10 11 5 5 10 13 13 9 10 11 4 3 6 5 12 20 20 17 13 8 8 6 3 4 5 4 2 2 3 3 2 2 3 4 3 3 4 4 7 3 2 3 3 7 7 6 8 5 2 2 2 5 7 9 9 4 5 5 6 5 4 4 5 5
5 6 4 17 35 26 11 11 13 12 12 11 12 13 10 8 12 18 21 18 11 12 15 12 14 14 9 9 10 11 11 5 6 8 3 3 2 2 12 21 20 17 11 8 10 6 3 4 5 7 7 7 7 6 6 6 4 2 2 4 4 6 8 5 2 2 8 8 10 11 9 2 3 1 2 6 6 7 11 7 4 6 7 5 4 4 5 4
5 6 3 7 15 14 10 9 10 11 13 12 10 10 12 11 8 12 18 16 11 13 14 14 17 14 12 15 12 10 9 0 4 7 6 6 4 1 11 20 19 16 11 12 13 7 3 3 5 7 10 11 9 5 4 9 7 6 6 7 8 8 10 7 4 8 10 4 8 14 7 2 2 2 5 7 7 7 10 7 5 7 6 5 5 5 5 5
3 5 7 8 9 11 12 9 9 10 12 14 10 7 12 15 11 10 12 8 7 10 9 11 16 15 16 19 14 12 12 2 5 9 9 6 4 3 8 14 16 16 14 13 12 7 4 4 8 11 14 11 6 4 7 11 12 13 12 11 12 10 10 10 12 14 7 5 9 9 8 6 6 5 7 8 7 7 9 8 7 6 5 5 5 4 5 6
2 4 7 9 9 11 13 11 10 11 12 14 11 11 16 17 15 14 10 6 6 10 8 8 15 19 21 23 17 13 15 7 4 10 9 5 5 6 6 7 10 16 16 11 10 7 6 9 11 12 14 8 4 5 10 11 10 12 14 15 13 12 13 17 23 18 8 7 12 6 11 12 8 6 10 9 8 9 9 7 6 5 4 3 2 3 5 6
2 4 2 2 6 13 17 14 12 14 15 13 10 14 19 19 19 17 11 8 9 11 11 12 18 22 23 23 18 14 17 14 9 12 12 11 11 10 9 7 6 10 13 12 8 5 6 9 9 11 13 6 2 5 10 10 7 9 14 17 16 16 19 23 27 19 12 17 14 5 7 10 6 7 10 6 5 6 4 4 3 4 4 4 5 5 7 7
3 4 5 3 2 11 18 17 14 15 14 11 10 13 18 21 22 18 14 14 16 14 14 18 22 23 24 25 20 18 22 23 20 19 18 17 15 12 11 9 6 5 7 9 7 3 5 7 6 8 8 3 1 3 6 7 8 10 13 15 16 20 24 26 23 15 14 20 13 3 7 9 5 7 7 2 0 0 3 5 6 6 6 6 5 5 6 6
2 1 6 9 6 9 15 14 14 14 12 11 10 12 17 22 24 20 15 14 19 20 20 25 28 23 22 25 23 23 27 29 26 24 22 21 18 13 9 5 8 10 6 6 5 2 2 3 3 7 7 4 1 5 4 4 5 5 9 14 20 23 23 20 14 13 16 17 11 9 13 8 4 6 6 2 2 3 7 8 7 5 4 6 5 5 6 7
1 2 2 7 9 10 12 12 12 13 12 11 12 12 17 21 22 22 14 8 13 19 19 23 26 19 18 25 27 25 26 25 20 17 17 17 14 11 8 8 14 16 11 6 3 3 5 5 3 6 7 3 1 6 7 8 5 4 11 18 24 22 15 10 10 16 18 12 9 12 11 4 7 8 9 6 6 8 10 9 8 7 4 5 6 6 7 8
Wind_Direction
237 240 241 241 237 226 215 211 209 206 204 203 202 199 197 195 194 195 194 193 191 189 189 187 185 187 187 191 195 198 204 203 197 195 198 207 208 205 202 185 153 158 157 151 155 140 117 112 38 39 110 305 350 337 327 360 85 86 117 129 188 186 200 187 182 193 177 223 233 226 188 171 198 210 184 105 65 68 90 349 320 326 352 237 290 158 161 161
239 240 241 242 242 240 226 212 210 208 205 203 202 200 198 196 195 195 195 194 195 195 196 197 197 195 191 190 190 190 190 185 181 189 198 200 201 189 189 190 173 170 172 159 148 141 128 95 19 41 73 39 346 334 325 323 79 128 126 164 217 198 208 199 182 188 188 200 201 218 204 193 198 174 162 176 199 143 151 278 338 324 337 16 121 148 157 160
244 240 240 243 244 245 239 224 213 209 206 204 202 200 198 197 196 195 194 192 192 193 194 197 198 194 191 185 181 184 177 167 182 215 205 195 196 187 179 186 184 184 186 178 167 161 156 132 44 23 67 80 281 324 322 320 270 162 131 211 241 210 229 239 195 200 218 185 163 209 207 241 231 157 161 182 182 185 189 207 212 225 227 126 141 150 157 162
247 243 241 244 244 243 245 240 226 214 207 205 203 201 199 198 197 196 194 192 191 192 193 194 195 193 193 187 184 182 162 106 238 218 208 195 192 187 176 172 174 182 178 169 169 161 155 138 96 9 68 101 325 345 292 278 237 167 148 202 241 195 234 247 208 216 230 193 170 164 124 246 247 164 179 148 144 239 233 214 199 196 180 159 161 159 162 167
246 244 241 242 244 242 245 245 238 225 211 204 202 201 199 198 198 197 196 195 195 195 196 198 198 199 197 191 190 174 139 30 229 213 208 196 192 187 179 170 166 177 158 145 147 137 141 142 130 76 65 145 110 54 265 281 144 171 207 207 218 154 242 253 212 217 200 136 130 139 158 199 184 192 189 159 176 224 228 213 203 184 166 164 165 164 167 172
245 245 242 240 243 244 245 246 245 237 218 204 201 202 200 199 198 197 197 197 198 199 199 201 201 202 199 191 187 171 157 218 207 198 202 195 192 189 187 177 168 178 161 141 135 130 133 139 148 142 105 132 145 166 238 311 254 226 270 247 228 187 244 268 213 209 152 117 148 172 201 160 150 233 202 179 205 234 245 187 177 174 167 164 161 163 170 177
245 246 245 242 242 243 244 247 247 241 231 210 200 201 201 199 198 197 196 196 198 199 198 200 201 199 193 184 180 174 183 224 250 184 193 190 192 191 189 179 170 177 170 154 138 130 135 141 157 147 133 145 165 177 48 323 265 229 257 278 261 231 242 263 270 228 151 163 198 172 159 162 182 215 141 202 223 270 323 166 146 153 158 159 160 168 178 182
246 245 245 246 242 242 244 245 247 243 240 224 202 199 200 198 197 195 194 195 195 196 196 196 194 190 184 173 169 186 206 216 212 179 185 184 189 189 182 175 174 177 173 170 161 145 139 146 159 142 148 160 130 141 37 356 2 226 248 291 296 277 283 292 292 272 188 211 205 124 173 212 200 181 128 223 233 280 335 123 130 140 150 164 172 177 183 186
249 248 246 248 245 243 244 244 249 246 241 235 209 197 199 198 196 194 193 193 192 192 192 190 187 183 180 170 164 203 209 210 203 170 180 182 186 186 179 172 173 174 170 177 174 157 149 157 169 159 153 144 115 118 31 55 94 354 287 292 304 306 319 338 315 281 231 231 156 144 225 254 248 193 235 238 226 204 86 125 137 145 160 176 181 184 185 189
252 253 249 249 248 244 245 243 246 248 242 241 223 199 197 198 196 194 192 191 191 190 188 186 184 178 176 169 173 206 201 202 199 177 179 183 184 182 181 178 173 167 160 167 169 163 171 163 151 134 114 100 102 61 20 144 104 318 280 256 255 302 313 4 329 295 290 238 177 189 229 254 297 270 247 255 198 150 126 143 160 158 173 184 188 192 189 192
254 254 253 250 248 245 245 244 244 247 246 243 236 209 196 196 196 193 192 191 190 189 187 186 182 177 176 172 186 207 186 189 188 179 182 185 186 182 184 186 182 173 162 158 163 170 184 154 137 116 96 124 125 55 334 201 11 302 278 251 257 337 328 307 302 286 290 251 185 186 224 256 350 225 234 245 155 155 147 161 179 177 186 188 190 195 193 198
256 254 253 252 250 247 243 245 244 244 246 243 240 223 199 194 195 194 192 191 189 190 188 186 182 178 175 181 202 200 180 183 178 175 183 185 186 185 185 186 187 184 172 163 169 172 172 158 144 116 151 145 128 82 287 198 337 296 303 278 280 350 333 266 262 271 285 240 187 159 246 271 213 232 238 192 144 152 149 170 186 191 195 192 195 196 199 205
257 255 254 253 251 249 245 244 245 243 245 244 240 233 209 194 194 194 191 190 189 189 187 185 181 176 174 192 201 180 174 177 171 170 177 179 177 178 180 183 187 190 182 176 179 173 165 165 152 105 133 137 136 164 130 134 290 283 352 321 301 344 303 248 204 170 159 195 175 152 241 264 232 237 231 143 146 139 152 189 192 197 200 197 200 200 206 207
256 257 255 254 252 251 249 245 246 245 244 245 240 237 222 196 192 193 190 189 187 186 186 182 178 175 179 185 168 171 169 167 168 169 171 171 163 160 169 175 183 193 194 187 179 170 164 163 138 94 98 113 148 155 88 25 332 85 32 337 267 242 272 280 178 151 166 193 117 138 231 260 248 244 213 154 164 159 181 202 197 203 203 200 202 205 212 209
255 257 254 255 253 251 251 247 247 246 243 246 241 238 232 203 190 190 190 186 184 184 182 178 176 169 172 217 168 164 161 159 166 170 171 168 158 156 166 163 163 182 195 191 177 169 165 156 125 107 125 360 141 139 74 357 351 87 189 227 221 214 269 301 242 168 180 245 112 145 225 261 260 257 235 184 175 177 198 201 200 209 204 203 206 208 216 215
255 255 255 254 253 252 251 250 248 246 243 243 243 238 235 213 189 186 188 183 181 180 174 173 174 163 151 201 160 158 157 160 167 169 170 167 162 161 157 146 136 145 158 168 166 163 162 151 115 122 121 85 146 128 90 337 272 232 194 204 216 206 255 295 280 197 172 114 184 190 216 257 263 270 298 237 184 185 204 206 207 209 208 208 207 211 217 218
253 254 256 252 251 253 249 250 248 245 244 240 243 238 235 221 191 184 185 180 178 176 172 172 169 163 147 142 149 165 166 162 165 166 169 170 168 160 147 135 131 130 123 133 151 156 155 145 140 147 99 112 150 127 146 216 223 214 157 191 228 198 200 234 265 231 152 134 222 210 212 235 252 269 311 284 192 187 203 211 210 206 212 212 210 217 218 219
251 252 255 253 251 251 247 249 245 244 242 236 243 238 238 226 191 180 178 173 172 173 175 173 162 166 228 174 161 163 162 160 162 164 169 172 166 158 145 133 139 128 114 118 142 153 147 102 166 155 129 152 159 169 194 217 203 189 187 192 225 228 223 226 244 214 161 168 222 206 217 238 252 267 277 257 184 194 212 218 220 212 216 216 213 220 220 222
248 251 254 255 255 251 247 246 243 243 240 235 238 234 242 230 190 176 171 164 165 178 179 167 168 180 193 175 154 144 159 161 158 161 165 163 156 152 136 127 137 133 131 137 151 172 143 98 161 176 183 184 185 194 199 194 147 174 197 193 200 231 240 231 251 244 184 180 220 208 209 237 250 259 258 238 170 197 228 252 258 227 222 222 217 223 224 225
249 252 254 257 258 258 250 243 244 242 237 232 224 218 237 229 191 173 166 162 178 195 180 169 174 165 94 135 129 131 153 156 152 158 161 159 150 140 122 125 135 139 154 151 150 171 158 161 192 196 191 187 188 188 173 105 134 154 161 165 207 239 256 258 267 276 217 200 231 216 206 228 242 251 251 221 152 196 227 239 243 232 221 221 219 223 226 227
254 253 256 258 257 261 256 244 244 240 237 229 211 202 219 219 212 165 158 174 192 186 178 177 171 156 123 139 139 136 140 153 153 156 158 157 147 140 144 147 148 164 171 147 132 136 177 188 197 191 174 171 171 156 132 114 116 132 138 143 242 244 258 280 281 297 286 208 248 234 214 230 240 251 254 164 158 209 215 214 227 229 221 217 219 226 229 234
259 255 255 258 257 262 260 246 242 239 237 227 211 209 220 231 265 172 160 175 191 172 17 177 159 99 132 142 151 148 138 153 159 159 158 157 159 162 166 163 161 162 161 145 126 139 194 205 185 155 138 136 143 147 151 154 123 129 131 124 233 245 266 276 276 291 225 204 261 250 219 240 247 253 257 192 198 232 219 214 223 224 222 220 221 227 231 236
262 257 253 257 258 262 261 247 241 239 233 223 213 215 221 238 257 166 153 135 181 179 68 166 140 116 138 141 156 152 141 158 161 164 164 162 172 172 158 165 166 154 162 167 160 164 188 206 171 148 138 138 149 160 160 177 175 163 157 152 215 274 248 251 283 316 265 232 275 210 222 255 254 258 261 224 217 246 236 228 234 223 216 221 222 229 230 228
262 258 253 254 258 262 260 246 238 236 230 223 221 220 224 238 206 162 147 63 168 206 165 161 141 146 155 152 161 158 148 160 158 161 170 167 160 156 160 165 158 156 176 173 165 171 175 180 160 146 148 153 159 169 169 190 205 192 191 183 191 255 248 252 315 330 304 303 75 113 294 274 237 249 260 240 221 250 249 241 250 238 222 226 231 237 234 227
260 258 254 252 258 260 253 241 230 229 227 224 226 224 225 231 190 162 144 37 165 165 170 165 148 162 159 154 163 160 139 153 168 163 171 171 155 149 165 165 163 171 175 161 154 177 195 164 154 147 159 166 169 182 183 184 193 217 209 186 195 232 255 282 316 337 321 285 256 209 265 265 256 248 251 245 223 243 243 233 242 242 231 230 234 236 234 234
259 258 252 251 259 253 243 235 224 222 222 224 222 222 222 217 199 169 117 231 193 172 170 169 171 169 160 155 161 148 137 158 166 153 164 174 163 154 161 161 185 173 162 151 147 186 187 158 157 156 163 172 182 196 189 175 179 221 188 170 208 236 256 282 298 314 251 261 286 151 224 259 301 261 246 244 234 243 243 237 242 244 239 231 230 233 233 235
259 257 250 251 257 244 227 220 219 212 212 224 217 215 214 200 189 172 130 233 211 168 164 163 175 172 167 163 158 148 151 145 124 149 170 175 167 155 164 164 161 161 152 147 177 200 150 154 167 168 163 174 193 199 187 174 177 202 152 159 196 221 240 254 255 239 236 277 308 310 195 253 273 249 254 271 249 259 257 248 249 247 242 236 233 234 232 231
259 256 251 251 251 236 220 217 211 202 213 217 209 205 201 185 173 158 195 228 181 137 154 143 156 164 159 160 160 149 137 138 135 171 178 171 171 103 162 172 155 152 158 165 188 181 142 164 176 173 172 186 193 182 173 174 183 198 155 155 177 193 218 227 206 226 259 344 282 261 166 222 260 268 297 346 230 257 259 247 245 242 237 236 236 236 236 234
260 258 255 251 245 232 221 217 208 208 215 209 197 190 181 180 183 154 212 229 134 124 154 140 149 151 143 156 163 140 128 140 141 152 153 170 199 39 155 177 150 147 167 180 186 178 169 181 176 172 182 193 188 176 168 177 189 171 147 138 128 142 178 189 173 196 219 257 245 237 202 223 261 273 276 292 235 244 253 250 241 238 237 234 235 237 239 239
262 260 258 250 236 219 212 214 215 214 209 198 187 175 164 174 207 201 208 203 105 173 162 150 162 151 149 158 159 144 142 137 117 126 126 163 191 16 120 156 133 139 165 189 195 210 258 164 166 176 192 185 182 178 167 177 174 125 125 127 118 113 76 97 149 131 179 250 242 227 224 238 265 264 230 225 224 211 225 252 253 246 245 240 234 238 244 244
265 263 259 248 223 207 200 208 214 209 198 184 173 161 157 175 230 214 210 160 106 188 158 151 158 152 155 159 152 148 142 118 129 139 136 151 161 164 137 150 149 133 154 188 201 223 47 105 167 200 192 142 149 169 171 178 167 129 131 146 150 204 154 151 338 132 209 246 245 211 205 222 243 252 233 237 241 217 211 233 246 242 244 246 242 244 251 250
266 263 258 242 214 200 196 202 204 199 185 173 161 153 167 196 215 212 182 137 163 189 160 151 156 155 159 161 157 152 139 128 147 149 152 161 169 183 174 171 168 155 174 187 178 110 80 184 217 232 200 149 149 167 180 186 178 156 161 165 165 184 180 201 227 207 223 254 261 167 143 222 240 249 259 263 263 248 225 222 238 246 252 261 255 248 254 254
265 260 251 228 203 195 198 200 195 185 173 165 159 166 180 204 218 169 122 174 182 163 161 157 158 158 159 162 160 149 136 139 156 156 155 157 160 183 196 186 170 168 175 166 157 162 182 276 238 169 209 181 162 168 178 191 191 178 177 177 176 174 178 201 213 229 249 257 261 125 127 253 268 256 246 249 254 252 238 223 232 242 249 258 260 257 265 263
262 251 233 207 195 194 197 194 184 174 166 160 167 179 181 205 213 119 138 210 147 137 159 157 156 159 161 161 157 151 138 148 162 158 155 155 158 180 202 206 188 172 118 150 171 175 177 230 212 173 189 176 170 180 173 155 174 195 184 157 180 188 181 193 198 209 232 253 272 269 185 211 205 235 236 235 253 263 252 232 236 246 247 253 273 278 270 265
248 224 203 190 190 194 190 182 175 170 163 160 181 190 193 195 184 142 161 171 148 142 146 152 154 157 161 156 157 160 139 150 162 157 158 165 171 178 183 196 191 171 140 165 180 173 182 221 231 147 129 161 170 187 157 140 171 208 159 148 204 195 158 148 194 185 174 235 251 216 229 217 200 275 277 256 266 277 270 258 248 253 256 252 265 269 263 261
210 191 184 180 185 188 181 173 170 167 163 169 188 201 202 184 165 175 157 151 162 145 140 157 162 158 157 148 160 162 109 138 157 154 166 173 178 185 185 192 187 178 173 167 159 166 177 208 310 59 63 171 173 170 169 172 177 157 160 199 218 172 149 147 246 121 101 217 240 196 249 290 311 283 286 278 269 276 270 264 250 249 260 260 254 256 253 249
180 173 173 176 181 179 173 169 166 165 168 181 195 203 193 177 151 147 156 162 159 149 149 161 173 165 152 143 163 155 128 134 157 159 165 173 186 192 190 198 194 190 190 172 163 192 154 128 325 116 127 219 200 126 172 205 156 147 193 200 136 78 161 129 191 274 143 227 262 216 230 272 278 262 294 306 270 267 256 246 251 258 258 253 251 250 247 244
166 164 163 172 176 172 168 166 164 165 174 182 199 203 187 180 155 144 160 162 155 159 161 159 172 176 159 154 158 157 149 149 166 169 164 174 199 191 185 194 198 195 196 175 164 214 145 117 332 201 149 174 24 132 183 255 175 170 197 182 144 183 211 160 181 208 199 226 270 296 247 249 215 220 281 270 245 255 259 246 243 254 243 235 248 253 252 251
158 162 165 170 170 167 164 164 162 168 183 184 196 200 185 174 161 156 161 159 160 168 165 160 162 160 170 164 155 161 164 160 166 168 168 182 204 189 185 190 193 190 191 177 169 194 161 127 141 225 154 139 106 180 195 201 159 71 140 177 177 188 192 185 182 178 185 215 246 288 281 246 215 199 216 244 245 244 252 255 234 236 236 229 239 251 252 251
156 162 161 163 165 163 160 160 164 180 187 188 193 190 172 162 165 167 164 160 168 180 168 162 156 151 167 167 158 165 165 160 167 171 176 180 179 189 189 186 178 180 180 172 163 171 159 117 136 127 76 162 183 215 196 180 166 154 163 185 197 184 147 177 196 154 152 189 202 253 266 251 226 190 195 225 252 241 223 233 239 239 245 241 237 244 251 253
155 160 159 159 160 159 155 157 178 180 183 194 194 188 171 163 162 168 168 164 168 211 186 160 160 159 159 161 167 171 158 157 171 175 175 179 177 194 192 184 170 162 163 169 195 184 173 138 139 135 168 185 215 263 191 172 179 182 188 195 191 176 143 184 224 218 110 195 188 187 259 261 224 188 193 204 239 247 216 209 240 253 255 257 254 243 245 252
157 161 152 155 157 156 154 163 178 171 196 194 184 178 169 160 159 168 174 170 165 165 154 160 164 160 157 163 168 168 161 159 173 180 183 188 190 200 192 177 162 157 164 171 188 179 113 105 120 140 198 197 256 297 178 151 154 163 210 203 175 181 172 180 219 227 165 243 167 135 268 272 194 182 195 196 221 242 215 192 231 257 254 259 268 261 257 263
159 145 143 153 157 157 156 174 172 177 197 171 158 171 176 164 162 167 172 173 169 155 150 166 167 158 162 169 161 161 162 160 176 180 165 180 193 200 177 161 149 156 171 169 162 163 131 119 112 64 316 314 322 329 22 32 61 190 235 175 158 196 171 151 191 182 194 225 163 208 263 266 194 187 199 207 223 241 233 181 213 258 269 262 268 280 284 280
142 124 135 154 160 161 165 175 174 176 167 151 159 174 179 170 165 165 168 176 178 155 151 163 171 167 164 155 158 167 166 159 182 184 146 152 186 172 160 157 153 164 180 182 172 169 165 144 129 120 94 24 339 331 308 248 196 202 203 146 162 143 104 115 168 113 222 210 171 212 242 229 263 282 244 256 258 260 263 231 200 240 263 265 275 294 287 278
128 132 102 155 162 167 180 173 168 169 161 156 161 165 165 167 173 171 167 171 181 166 157 163 170 165 150 147 159 176 178 164 173 177 136 115 139 142 158 159 164 174 179 163 151 140 141 160 151 153 163 179 191 205 217 199 175 181 136 134 155 132 135 179 171 171 238 208 172 214 239 242 307 323 194 254 264 259 263 261 238 238 247 262 282 289 285 284
140 143 117 146 161 178 189 169 161 169 164 155 155 164 159 153 172 183 171 170 182 173 161 160 163 157 152 156 158 178 194 105 102 155 148 137 148 203 168 165 170 175 155 137 143 134 120 165 170 175 192 200 194 190 139 121 136 188 178 157 172 180 180 175 165 214 224 185 200 223 207 113 294 207 194 233 232 235 255 259 252 247 251 263 259 263 280 283
144 152 156 152 153 177 191 182 170 173 167 158 153 159 157 152 159 187 192 191 180 165 154 152 157 157 161 163 161 177 188 144 80 148 153 140 121 96 158 169 171 165 145 141 158 142 109 192 195 191 207 206 173 161 145 140 169 188 180 178 187 189 179 177 208 218 175 139 231 220 150 171 243 231 217 224 214 229 252 249 238 237 244 254 252 267 288 282
139 142 167 164 152 171 188 185 175 177 173 164 154 151 159 160 161 174 193 198 170 163 150 146 163 167 167 166 164 171 177 171 143 159 156 144 126 114 147 184 181 168 156 160 180 154 149 207 204 194 210 208 134 159 169 162 177 179 179 190 191 186 186 201 220 217 165 199 234 169 148 197 223 223 226 225 212 220 236 238 229 223 229 235 244 278 272 264
118 106 147 164 154 170 175 169 171 183 183 173 164 161 163 164 166 173 175 167 175 179 163 157 171 172 168 169 167 164 172 177 180 178 171 165 160 150 156 182 201 184 169 170 186 179 177 199 193 186 200 201 128 181 178 161 156 169 187 193 189 195 203 214 224 219 207 232 235 138 161 216 214 212 225 231 217 217 251 270 231 204 203 180 183 218 232 238
156 143 145 107 114 168 170 168 170 182 190 185 175 171 168 166 169 173 174 172 176 178 169 167 172 174 173 174 173 173 180 184 185 182 173 164 166 169 170 174 174 177 180 173 177 211 201 186 163 160 180 201 73 174 178 162 160 176 197 199 197 206 214 220 224 218 225 240 239 237 265 260 241 229 236 253 105 225 286 264 232 206 182 163 184 223 236 244
285 256 159 155 161 169 170 171 171 175 187 195 184 171 170 172 172 170 179 190 182 176 176 174 173 174 175 177 180 182 184 186 186 182 173 168 171 171 170 169 153 153 170 173 153 117 146 155 111 130 169 224 176 134 134 107 117 177 210 208 207 212 218 222 220 211 223 232 228 244 259 248 199 226 240 204 144 225 250 250 251 244 177 157 200 238 245 246
333 355 112 149 161 169 168 169 174 178 183 189 185 174 173 176 173 168 173 202 197 188 183 175 169 167 173 183 190 190 185 184 181 176 171 170 167 157 142 145 155 158 158 152 135 103 123 127 118 144 173 219 110 125 125 96 91 230 228 213 211 216 219 222 225 222 222 216 206 228 238 189 162 200 217 212 210 237 248 243 247 253 216 192 219 233 239 244